Regional Weather Roundup
Issued by NWS

Home | Current Version | Previous Version | Graphics & Text | Print | Product List | Glossary On
Versions: 1 2 3 4 5 6 7 8 9 10 11 12 13 14 15 16 17 18 19 20 21 22 23 24 25 26 27 28 29 30 31 32 33 34 35 36 37 38 39 40 41 42 43 44 45 46 47 48 49 50
000
ASUS45 KCYS 051410
RWRWY

WYOMING REGIONAL WEATHER ROUNDUP
NATIONAL WEATHER SERVICE CHEYENNE WY
800 AM MDT THU MAY 05 2016

NOTE:  "FAIR" INDICATES FEW OR NO CLOUDS BELOW 12,000 FEET
WITH NO SIGNIFICANT WEATHER AND/OR OBSTRUCTIONS TO VISIBILITY.

WYZ001-051500-
YELLOWSTONE NATIONAL PARK

CITY           SKY/WX    TMP DP  RH WIND       PRES   REMARKS
LK YELLOWSTONE   N/A     41  32  70 CALM      30.20S
W YELLOWSTONE  NOT AVBL

$$
WYZ002>013-054>058-071-098>099-051500-
NORTHERN WYOMING

CITY           SKY/WX    TMP DP  RH WIND       PRES   REMARKS
JACKSON        SUNNY     43  32  65 CALM      30.15R
CODY           FAIR      57  32  38 CALM      30.02R
GREYBULL       FAIR      54  33  45 SE5       29.98R
WORLAND        FAIR      52  44  74 CALM      29.99R
SHERIDAN       FAIR      57  45  64 CALM      29.95S
BUFFALO          N/A     65  39  38 CALM      30.00S
GILLETTE       FAIR      58  43  57 S13       29.99S
HULETT         FAIR      61  43  51 W5        30.00S
NEWCASTLE      FAIR      57  37  47 CALM      30.03S

$$
WYZ014>020-022>026-101>103-051500-
CENTRAL WYOMING

CITY           SKY/WX    TMP DP  RH WIND       PRES   REMARKS
BIG PINEY      FAIR      43  31  62 CALM      30.18S
PINEDALE       FAIR      43  32  65 NW3       30.19S
DUBOIS         FAIR      43  23  45 W10       30.16R
LANDER         FAIR      54  37  52 CALM      30.07R
RIVERTON       FAIR      52  38  58 W5        30.09R
CASPER         FAIR      54  37  52 SW8       30.07S
DOUGLAS        FAIR      51  43  74 CALM      30.07S

$$
WYZ021-027>030-104>119-051500-
SOUTHERN WYOMING

CITY           SKY/WX    TMP DP  RH WIND       PRES   REMARKS
EVANSTON       FAIR      53  27  36 E6        30.14R
KEMMERER         N/A     46  32  57 N6        30.17S
FORT BRIDGER   MOSUNNY   55  32  41 CALM      30.19R
ROCK SPRINGS   FAIR      50  31  48 E3        30.17R
DIXON          FAIR      46  34  63 SE6       30.23R
RAWLINS        FAIR      49  33  54 E3        30.20R
SARATOGA       FAIR      46  30  53 SE12      30.22S
LARAMIE        FAIR      44  34  67 S7        30.22R
CHEYENNE       FAIR      55  35  47 W12       30.16R
TORRINGTON     FAIR      54  42  64 CALM      30.05R
PINE BLUFFS    FAIR      50  43  76 S6        30.12F

$$



USA.gov is the U.S. government's official web portal to all federal, state and local government web resources and services.